Temp
26 25 24 25 29 29 30 28 29 39 40 42 43 44 44 45 46 47 48 47 48 48 49 49 50 50 50
22 24 23 25 25 25 31 34 32 37 39 41 42 43 44 44 45 45 46 46 46 46 47 47 47 48 49
21 24 24 24 26 26 27 28 32 36 38 40 41 42 42 42 42 43 44 44 44 44 44 45 45 46 47
21 22 23 26 25 24 24 28 28 33 35 37 38 39 40 40 40 40 41 41 42 43 43 43 44 45 46
21 22 22 23 23 26 25 26 27 28 29 30 30 30 31 35 36 38 39 40 41 42 43 43 44 44 45
20 20 21 23 25 24 24 23 21 29 26 27 28 29 31 30 35 37 39 40 40 41 42 43 43 43 44
20 21 22 24 25 23 24 23 23 27 27 24 29 27 30 33 36 37 38 39 40 40 41 42 42 42 43
25 24 24 26 26 26 25 25 27 28 28 21 27 26 29 30 35 37 38 38 39 40 40 41 41 42 42
32 32 33 33 32 25 20 19 19 22 28 24 25 26 27 28 31 36 37 38 39 39 39 40 40 41 38
26 28 30 29 33 29 26 21 21 20 27 24 25 26 21 29 30 30 30 35 36 36 37 38 38 34 32
23 23 24 25 26 26 27 25 22 21 28 27 24 24 23 22 26 29 28 29 30 31 35 36 36 36 31
22 21 22 23 25 27 28 28 28 27 28 28 23 24 22 21 21 26 26 28 28 28 29 33 35 36 36
21 23 24 24 26 26 27 27 27 28 29 29 26 25 23 19 18 21 22 24 27 26 27 27 27 28 26
20 22 23 22 22 24 23 24 22 22 27 27 26 25 21 21 21 19 21 18 23 24 26 26 27 28 28
20 20 20 21 21 23 22 21 17 16 17 21 24 24 23 21 16 19 19 19 22 23 23 21 24 26 26
19 19 18 19 19 19 19 16 14 15 15 17 17 16 16 19 24 18 19 19 21 22 23 20 20 24 26
19 19 19 17 18 16 15 14 13 14 14 16 14 12 7 6 17 26 18 19 20 19 21 20 19 22 24
MSLP
1033.04 1032.88 1032.81 1032.59 1032.18 1031.91 1031.77 1031.59 1031.32 1030.84 1030.39 1029.86 1029.47 1029.16 1028.90 1028.45 1028.13 1027.98 1027.69 1027.52 1027.37 1027.19 1026.96 1026.62 1026.29 1026.12 1025.81
1033.01 1032.88 1032.70 1032.34 1032.06 1031.80 1031.34 1030.98 1030.78 1030.38 1029.90 1029.50 1029.11 1028.85 1028.32 1028.18 1027.94 1027.65 1027.34 1027.19 1027.20 1027.26 1026.84 1026.50 1026.29 1026.06 1025.59
1032.58 1032.49 1032.27 1032.14 1031.65 1031.39 1030.97 1030.41 1030.28 1029.89 1029.47 1029.08 1028.79 1028.32 1028.12 1028.10 1027.91 1027.59 1027.22 1027.02 1026.93 1026.93 1026.57 1026.22 1026.01 1025.72 1025.24
1032.00 1031.88 1031.73 1031.45 1031.35 1031.08 1030.40 1030.10 1029.65 1029.25 1029.08 1028.84 1028.49 1028.25 1027.99 1027.94 1027.77 1027.40 1027.02 1026.76 1026.53 1026.22 1025.99 1025.74 1025.47 1024.97 1024.66
1031.27 1031.15 1030.97 1030.89 1030.71 1030.28 1029.94 1029.65 1029.27 1029.13 1028.65 1028.50 1028.35 1028.09 1027.94 1027.62 1027.31 1027.08 1026.61 1026.26 1025.90 1025.72 1025.26 1024.88 1024.61 1024.26 1023.98
1030.36 1030.30 1030.17 1030.17 1030.00 1029.76 1029.46 1029.23 1028.88 1028.42 1028.21 1027.91 1027.87 1027.23 1027.06 1026.89 1026.56 1026.18 1025.89 1025.61 1025.06 1024.82 1024.43 1024.00 1023.84 1023.51 1023.30
1029.22 1029.37 1029.29 1029.34 1029.29 1029.30 1029.03 1028.76 1028.16 1027.94 1027.88 1026.76 1027.29 1026.40 1026.37 1026.02 1025.69 1025.47 1025.08 1024.78 1024.43 1023.82 1023.61 1023.29 1022.97 1022.61 1022.42
1028.43 1028.58 1028.69 1028.57 1028.53 1028.26 1027.96 1027.60 1026.97 1026.72 1026.93 1026.08 1026.37 1025.73 1025.65 1025.36 1024.94 1024.73 1024.34 1023.94 1023.55 1023.11 1022.77 1022.38 1022.00 1021.62 1021.33
1027.09 1026.83 1026.75 1026.85 1026.72 1027.23 1026.95 1027.00 1026.17 1025.82 1025.97 1025.77 1025.49 1024.99 1024.82 1024.42 1023.98 1023.74 1023.42 1022.95 1022.47 1022.08 1021.69 1021.21 1020.87 1020.49 1020.48
1026.38 1026.09 1025.94 1025.98 1025.89 1026.03 1025.94 1025.85 1025.63 1024.78 1024.90 1024.95 1024.57 1024.38 1023.67 1023.10 1022.97 1022.85 1022.62 1022.35 1022.05 1021.56 1021.13 1020.64 1020.44 1020.15 1019.91
1025.17 1025.07 1025.24 1025.36 1025.34 1025.42 1025.17 1025.06 1024.67 1024.02 1023.88 1023.94 1023.65 1023.35 1023.06 1022.36 1022.23 1022.07 1022.08 1021.59 1021.43 1020.99 1020.56 1020.11 1019.74 1019.45 1019.02
1023.74 1023.78 1023.97 1023.92 1023.93 1023.97 1023.92 1023.88 1023.75 1023.37 1023.22 1023.31 1022.92 1022.64 1022.21 1021.80 1021.40 1021.29 1021.11 1020.82 1020.61 1019.95 1019.44 1018.86 1018.30 1017.80 1017.46
1022.53 1022.56 1022.65 1022.84 1023.01 1023.08 1023.05 1022.81 1022.46 1022.20 1022.04 1022.06 1021.95 1021.81 1021.75 1021.44 1020.94 1020.46 1020.06 1019.53 1019.33 1018.85 1018.28 1017.75 1017.16 1016.87 1016.53
1021.73 1021.86 1022.04 1022.15 1022.19 1022.22 1022.07 1021.80 1021.65 1021.49 1021.42 1021.44 1021.42 1021.32 1021.04 1020.71 1020.26 1019.47 1019.19 1018.65 1018.14 1017.65 1017.08 1016.25 1015.79 1015.50 1015.11
1021.16 1021.23 1021.26 1021.32 1021.28 1021.31 1021.10 1020.98 1020.98 1021.05 1021.05 1020.99 1020.81 1020.58 1020.25 1019.82 1019.22 1018.79 1018.05 1017.34 1016.84 1016.15 1015.77 1014.89 1014.30 1013.96 1013.59
1020.46 1020.54 1020.60 1020.65 1020.64 1020.58 1020.63 1020.78 1020.82 1020.72 1020.57 1020.43 1020.24 1019.88 1019.27 1018.33 1018.47 1017.52 1016.84 1016.15 1015.26 1014.72 1014.26 1013.55 1012.47 1012.17 1011.81
1019.61 1019.74 1019.83 1020.16 1020.28 1020.34 1020.43 1020.51 1020.38 1020.23 1019.97 1019.78 1019.64 1019.47 1018.76 1017.35 1016.29 1016.71 1015.74 1014.77 1013.98 1013.15 1012.64 1011.91 1010.87 1009.94 1009.75
Wind_Speed
2 2 4 6 8 6 6 5 5 17 20 20 19 18 20 20 19 19 23 16 18 19 23 22 21 22 22
3 4 5 6 7 8 8 8 7 15 21 20 20 21 19 18 19 21 20 19 19 21 24 22 21 23 23
6 4 5 4 8 7 8 8 7 16 18 19 21 18 17 18 20 23 24 23 23 24 23 23 22 23 23
7 7 6 6 5 7 9 6 8 8 12 15 18 19 20 22 24 23 24 25 25 24 24 23 24 24 24
7 7 7 7 8 7 8 8 7 5 8 6 6 6 7 15 18 21 21 21 22 23 23 24 24 24 26
8 10 11 8 7 7 7 7 8 6 6 7 4 9 9 7 18 22 22 23 24 25 25 25 26 26 27
11 9 7 4 4 7 8 8 10 9 10 12 8 11 8 10 21 24 25 25 25 25 26 28 29 28 30
12 10 10 10 11 11 13 13 12 10 10 13 7 11 8 8 21 23 25 26 27 28 30 31 31 30 31
27 26 26 26 22 9 9 10 11 8 6 7 7 9 8 10 10 22 26 29 29 29 30 30 31 29 19
13 16 19 15 23 15 9 10 10 11 8 9 9 9 11 7 8 8 7 19 22 24 25 26 27 13 12
13 11 11 11 10 11 12 11 10 12 11 9 9 10 10 11 8 6 6 9 10 14 25 29 31 28 15
10 9 10 11 10 11 12 11 11 14 12 12 8 8 8 9 10 8 9 10 11 13 13 21 31 34 33
11 12 9 6 7 8 10 13 14 14 12 12 10 8 6 9 11 12 14 12 12 13 13 13 13 11 13
5 6 5 5 7 7 9 8 7 8 8 8 8 9 10 11 12 13 12 14 12 13 14 14 13 14 14
7 8 8 8 9 9 9 7 6 5 6 6 9 12 12 16 13 13 14 15 13 15 15 15 15 15 14
8 7 8 8 8 5 2 3 6 7 8 8 9 10 11 15 21 15 14 15 15 16 17 16 16 15 15
8 8 7 4 6 4 4 5 7 8 9 9 9 9 12 16 13 23 15 15 15 15 15 15 17 17 16
Wind_Direction
270 296 297 293 296 288 280 273 270 293 297 295 295 297 297 289 291 299 291 303 304 307 306 304 307 310 306
264 270 263 274 274 286 285 283 282 288 293 292 288 291 292 299 301 301 300 300 300 304 296 297 300 299 301
273 256 263 265 280 278 277 278 269 278 286 292 291 287 291 298 303 300 298 298 297 292 292 290 294 293 294
263 264 258 254 248 270 278 276 280 279 280 282 282 286 292 296 300 296 290 285 281 282 286 287 286 288 291
257 259 256 255 249 255 263 272 271 265 274 267 266 262 269 285 285 287 287 284 282 281 281 282 284 290 290
248 250 254 252 258 259 264 269 274 239 253 268 259 271 277 268 274 280 281 282 283 283 283 283 284 286 287
235 243 253 238 257 278 273 269 267 262 260 268 260 269 269 267 276 282 286 285 284 284 284 284 286 287 283
274 269 259 252 246 251 255 262 265 261 254 267 260 268 267 266 274 281 284 284 283 285 285 284 282 280 278
261 257 251 252 249 240 243 250 262 256 241 256 257 257 253 257 257 268 278 281 285 289 288 284 280 283 285
256 265 274 278 278 277 280 269 270 275 255 253 264 266 272 246 259 259 258 278 286 292 293 293 290 288 288
239 243 242 246 247 248 249 250 260 264 268 263 263 261 257 270 261 256 257 279 283 280 279 277 277 275 273
228 230 236 239 241 246 251 252 250 257 265 261 261 260 272 270 270 270 272 272 273 272 270 270 274 276 277
250 248 242 242 242 240 242 248 251 252 257 255 257 266 266 274 276 276 278 275 270 268 267 265 262 261 268
245 253 256 248 252 250 255 251 256 256 247 247 254 265 269 265 269 274 275 274 272 266 265 260 260 261 258
257 259 258 257 256 255 252 249 241 248 262 265 265 264 264 267 270 268 271 268 264 267 266 266 263 260 259
237 239 248 246 251 240 222 234 260 266 267 266 270 275 274 267 259 271 268 269 268 266 264 265 267 260 256
237 239 238 212 245 249 255 260 264 265 265 267 267 264 272 271 278 262 270 269 271 268 263 259 262 261 258